Regional Weather Roundup
Issued by NWS Sterling, VA

Home | Current Version | Previous Version | Text Only | Print | Product List | Glossary On
Versions: 1 2 3 4 5 6 7 8 9 10 11 12 13 14 15 16 17 18 19 20 21 22 23 24 25 26 27 28 29 30 31 32 33 34 35 36 37 38 39 40 41 42 43 44 45 46 47 48 49 50
000
ASUS41 KLWX 281510
RWRLWX

REGIONAL WEATHER ROUNDUP
NATIONAL WEATHER SERVICE BALTIMORE MD/WASHINGTON DC
1100 AM EDT THU AUG 28 2014

Note: "FAIR" indicates few or no clouds below 12,000 feet
with no significant weather and/or obstructions to visibility.
 TC=TEMPERATURE CELSIUS

 * =Non NWS site. Station does not report precipitation (e.g. rain,
    snow, etc.), thunder, or fog.

DCZ001-MDZ009-015-VAZ040>042-051-053>054-281600-
WASHINGTON METRO
  /KDAA//-FT BELVOIR

CITY           SKY/WX    TMP DP  RH WIND       PRES   REMARKS
WASHINGTON NAT MOSUNNY   82  63  52 NW9       29.99S
DULLES         MOSUNNY   76  58  53 N13       30.02R
ANDREWS AFB    SUNNY     78  63  58 NW15      29.99S
QUANTICO       MOSUNNY   80  64  58 N12       30.00S
COLLEGE PARK*  SUNNY     79  63  57 N8        29.99S
LEESBURG*      MOSUNNY   77  64  65 NW13G18   30.03S
MANASSAS*      SUNNY     79  61  53 N13G18    30.01
GAITHERSBURG*  SUNNY     75  63  64 W12G17    30.04S

$$

MDZ006>007-011-014-281600-
BALTIMORE METRO

CITY           SKY/WX    TMP DP  RH WIND       PRES   REMARKS
BWI AIRPORT    MOSUNNY   79  62  56 N7        29.98S
MD SCIENCE CTR   N/A     77  59  53 MISG      29.99S
MARTIN STATE   MOSUNNY   77  63  61 NW14      29.99S
ANNAPOLIS      SUNNY     77  60  55 NW9       29.97S
FORT MEADE*    SUNNY     79  61  53 NW7       30.01S

$$

MDZ012-015-019>023-281600-
MARYLAND EASTERN SHORE

CITY           SKY/WX    TMP DP  RH WIND       PRES   REMARKS
OCEAN CITY     MOSUNNY   82  67  60 N9        29.93S
SALISBURY      SUNNY     82  63  52 N10       29.94S
BAY BRIDGE AP*   N/A     77  61  57 N9        29.97F
CAMBRIDGE*     SUNNY     79  61  53 N9        29.96S
EASTON*        SUNNY     81  63  54 N9        30.00S

$$

MDZ017>025-281600-
SOUTHERN MARYLAND

CITY           SKY/WX    TMP DP  RH WIND       PRES   REMARKS
PATUXENT RIVER MOSUNNY   80  68  66 N10       29.97S
ST INIGOES     MOSUNNY   80  66  62 VRB5      29.96S
LEONARDTOWN*   PTSUNNY   79  64  61 NW5       29.99S

$$

MDZ003>005-281600-
NORTH CENTRAL MARYLAND

CITY           SKY/WX    TMP DP  RH WIND       PRES   REMARKS
FREDERICK*     MOSUNNY   79  64  61 NW6       30.05R
HAGERSTOWN APT MOSUNNY   73  58  59 NW10      30.04S
WESTMINSTER*   MOSUNNY   73  61  64 NW8       30.02S

$$

MDZ501>502-281600-
WESTERN MARYLAND

CITY           SKY/WX    TMP DP  RH WIND       PRES   REMARKS
OAKLAND*       PTSUNNY   59  59 100 NW8       30.16S
CUMBERLAND*    SUNNY     79  52  38 N8G16     30.10S

$$

VAZ025>031-281600-
SHENANDOAH VALLEY

CITY           SKY/WX    TMP DP  RH WIND       PRES   REMARKS
WINCHESTER*    SUNNY     75  57  53 NW12      30.04S
STAUNTON*      SUNNY     80  63  56 N6        30.06R

$$

WVZ021-048>050-054>055-281600-
EASTERN WEST VIRGINIA PANHANDLE

CITY           SKY/WX    TMP DP  RH WIND       PRES   REMARKS
MARTINSBURG    MOSUNNY   76  56  49 N8        30.05S
PETERSBURG*    NOT AVBL

$$

VAZ036>039-050-281600-
CENTRAL FOOTHILLS

CITY           SKY/WX    TMP DP  RH WIND       PRES   REMARKS
CHARLOTTESVILL MOSUNNY   82  66  58 CALM      30.01R
ORANGE*        SUNNY     79  64  61 NW8       30.03R

$$

VAZ055>057-281600-
NORTH AND CENTRAL PIEDMONT

CITY           SKY/WX    TMP DP  RH WIND       PRES   REMARKS
FREDERICKSBRG* SUNNY     81  59  47 N13       29.99R
STAFFORD*      SUNNY     78  60  53 N12       30.04S

$$

NCZ024-NYZ072-PAZ021-071-VAZ022-071-281600-
OTHER REGIONAL OBSERVATIONS

CITY           SKY/WX    TMP DP  RH WIND       PRES   REMARKS
NEW YORK CITY  SUNNY     74  53  48 VRB5      29.94S
PHILADELPHIA   MOSUNNY   75  54  47 NW14      29.96R
PITTSBURGH     MOSUNNY   68  53  58 N13       30.14R
ROANOKE        PTSUNNY   79  67  66 W5        30.07S
RICHMOND       CLOUDY    85  68  56 N9        29.98S
RALEIGH        MOSUNNY   84  69  60 NE6       30.02R

$$

ANZ530>537-281600-
MARINE OBSERVATIONS

STATION/POSITION TIME  TEMP    WIND        PRES
                       AIR SEA DIR/SP/G
                 (UTC) (F)     (DEG/KT/KT) (MB)
THOMAS PT LIGHT  1500   75 78  350/ 13/ 14 1015.6F
BALT KEY BRIDGE  1500   79     310/ 12/ 14 1015.2S
COVE POINT       1500   75      20/ 14/ 16 1014.7F
LEWISETTA        1500   79 79  350/  8/ 11 1014.5F
SOLOMONS ISLAND  1500      80                N/A
PINEY POINT      1500          350/  9/ 10   N/A

$$



USA.gov is the U.S. government's official web portal to all federal, state and local government web resources and services.